Overview Statistics Trail Chart Weather Telemetry Raw packets
 

This is the latest recevied weather packets stored in our database for station/object KO6HRZ. If no packets are shown the sender has not sent any weather packets the latest 10 day(s).

<< 45 46 47 48 49 50 51 >>
Time Temp. Humidity Pressure Rain* Wind** Luminosity Snow
1787978041 21.11° C 61% 1011.7 hPa 0 mm - 0 W/m² -
1787977438 21.67° C 60% 1011.7 hPa 0 mm - 0 W/m² -
1787976835 21.67° C 59% 1011.8 hPa 0 mm - 0 W/m² -
1787976235 21.67° C 59% 1011.5 hPa 0 mm - 0 W/m² -
1787975634 21.67° C 59% 1011.5 hPa 0 mm - 0 W/m² -
1787975032 22.22° C 58% 1011.6 hPa 0 mm - 0 W/m² -
1787974431 22.22° C 58% 1011.6 hPa 0 mm - 0 W/m² -
1787973831 22.78° C 57% 1011.4 hPa 0 mm - 0 W/m² -
1787973227 22.78° C 56% 1011.4 hPa 0 mm - 0 W/m² -
1787972627 22.78° C 56% 1011.4 hPa 0 mm - 0 W/m² -
1787972027 23.33° C 56% 1011.5 hPa 0 mm - 0 W/m² -
1787971424 23.33° C 55% 1011.6 hPa 0 mm - 2 W/m² -
1787970818 23.33° C 54% 1011.7 hPa 0 mm - 4 W/m² -
1787970218 23.89° C 53% 1011.7 hPa 0 mm - 7 W/m² -
1787969617 23.89° C 52% 1011.8 hPa 0 mm - 14 W/m² -
1787969016 23.89° C 51% 1012 hPa 0 mm - 19 W/m² -
1787968416 23.89° C 50% 1012 hPa 0 mm - 32 W/m² -
1787967816 24.44° C 50% 1012 hPa 0 mm - 30 W/m² -
1787967217 25° C 50% 1012.3 hPa 0 mm - 43 W/m² -
1787966613 25° C 49% 1012 hPa 0 mm - 63 W/m² -
1787966014 25° C 50% 1012 hPa 0 mm - 71 W/m² -
1787965408 25° C 50% 1011.8 hPa 0 mm - 74 W/m² -
1787964809 25.56° C 49% 1011.8 hPa 0 mm - 94 W/m² -
1787964205 25.56° C 50% 1011.8 hPa 0 mm - 97 W/m² -
1787963605 25.56° C 49% 1011.8 hPa 0 mm - 115 W/m² -

* Rain latest hour (hover to see other rain measurements)
** Current wind speed in m/s (hover to see current wind gust speed)